(185330) = 2006 VU26

Discovered at Kitt Peak on 2006-11-10 by Spacewatch.

Orbit

Orbit type: Main Belt

Note: WebGL enabled browser required.

epoch2023-02-25.0
epoch JD2460000.5
perihelion date2020-01-18.42122
perihelion JD2458866.92122
argument of perihelion (°)251.39037
ascending node (°)59.45858
inclination (°)2.92057
eccentricity0.0542714
perihelion distance (AU)2.7113256
Tisserand w.r.t. Jupiter3.3
ΔV w.r.t. Earth (km/sec)10.3
semimajor axis (AU)2.8669172
mean anomaly (°)230.16158
mean daily motion (°/day)0.20303980
aphelion distance (AU)3.023
period (years)4.85
P-vector [x]0.65300685
P-vector [y]-0.67423541
P-vector [z]-0.34494733
Q-vector [x]0.75607960
Q-vector [y]0.60675572
Q-vector [z]0.24533882
absolute magnitude16.41
phase slope0.15
uncertainty0
referenceMPEC 2023-F20
observations used290
oppositions17
arc length (days)8763
first opposition used1999
last opposition used2023
residual rms (arc-secs)0.76
perturbers coarse indicatorM-v
perturbers precise indicator003Ek
first observation date used1999-03-19.0
last observation date used2023-03-16.0
computer nameMPCLINUX
JD of orbit computation2456909.085621
perihelion JD uncertainty (days)2.0270E-04
argument of perihelion uncertainty (°)8.0520E-05
ascending node uncertainty (°)6.9168E-05
inclination uncertainty (°)4.5707E-06
eccentricity uncertainty 3.4058E-08
perihelion distance uncertainty (AU)1.0704E-07
Minimum Orbit Intersection Distances (in AU)
for orbit epoch: 2460000.5, reference: E2023-F20
Mercury2.27029
Venus1.98311
Earth1.69749
Mars1.27994
Jupiter2.10965
Saturn6.07548
Uranus15.4471
Neptune27.0043

Observations

294 total observations over interval: 1999 03 19.45226 – 2023 03 16.495472
These data are available for download (format description).

Date (UT) J2000 RA J2000 Dec Magn Location Ref
1999 03 19.45226 13 56 17.80 -09 00 22.2 21.1 V 691 – Steward Observatory, Kitt Peak-Spacewatch MPS 192405
1999 03 19.47862 13 56 16.99 -09 00 18.0 21.3 V 691 – Steward Observatory, Kitt Peak-Spacewatch MPS 192405
1999 03 19.51214 13 56 15.92 -09 00 13.0 21.0 V 691 – Steward Observatory, Kitt Peak-Spacewatch MPS 192405
2001 11 12.33544 03 01 22.83 +16 13 19.3 20.2 V 291 – LPL/Spacewatch II MPS 213834
2001 11 12.35824 03 01 21.57 +16 13 15.6 20.1 V 291 – LPL/Spacewatch II MPS 213834
2001 11 12.38036 03 01 20.35 +16 13 11.8 20.3 V 291 – LPL/Spacewatch II MPS 213834
2001 11 22.18529 02 52 49.98 +15 46 44.8 20.9   644 – Palomar Mountain/NEAT MPS 213834
2001 11 22.26469 02 52 45.92 +15 46 32.4 20.6   644 – Palomar Mountain/NEAT MPS 213834
2001 11 22.33113 02 52 42.64 +15 46 22.5 21.3   644 – Palomar Mountain/NEAT MPS 213834
2004 05 23.23865 14 07 32.64 -11 37 18.9 20.9 V 691 – Steward Observatory, Kitt Peak-Spacewatch MPS 192405
2004 05 23.26638 14 07 31.56 -11 37 15.3 21.4 V 691 – Steward Observatory, Kitt Peak-Spacewatch MPS 192405
2004 05 23.29824 14 07 30.35 -11 37 11.6 21.1 V 691 – Steward Observatory, Kitt Peak-Spacewatch MPS 192405
2005 07 04.42831 22 02 57.75 -16 12 59.6 20.7   644 – Palomar Mountain/NEAT MPS 192405
2005 07 04.43929 22 02 57.60 -16 13 01.2 20.8   644 – Palomar Mountain/NEAT MPS 192405
2005 07 04.45078 22 02 57.49 -16 13 02.9 20.9   644 – Palomar Mountain/NEAT MPS 192405
2006 09 27.36153 04 24 58.28 +20 59 56.5 20.7 V G96 – Mt. Lemmon Survey MPS 192405
2006 09 27.37010 04 24 58.35 +20 59 57.2 20.5 V G96 – Mt. Lemmon Survey MPS 192405
2006 09 27.37892 04 24 58.46 +20 59 57.7 20.3 V G96 – Mt. Lemmon Survey MPS 192405
2006 09 27.38757 04 24 58.50 +20 59 57.9 20.0 V G96 – Mt. Lemmon Survey MPS 192405
2006 10 27.39896 04 18 12.52 +21 05 09.0 20.1 V G96 – Mt. Lemmon Survey MPS 190665
2006 10 27.41001 04 18 12.06 +21 05 08.4 20.7 V G96 – Mt. Lemmon Survey MPS 190665
2006 10 27.42111 04 18 11.62 +21 05 08.0 20.2 V G96 – Mt. Lemmon Survey MPS 190665
2006 10 27.43223 04 18 11.23 +21 05 07.6 20.2 V G96 – Mt. Lemmon Survey MPS 190665
2006 11 10.22632 04 07 55.12 +20 51 06.9 20.7 V 691 – Steward Observatory, Kitt Peak-Spacewatch MPS 187244
2006 11 10.24370 04 07 54.23 +20 51 05.7 20.7 V 691 – Steward Observatory, Kitt Peak-Spacewatch MPS 187244
2006 11 10.26109 04 07 53.30 +20 51 04.3 21.1 V 691 – Steward Observatory, Kitt Peak-Spacewatch MPS 187244
2006 11 14.26415 04 04 21.31 +20 45 12.6   691 – Steward Observatory, Kitt Peak-Spacewatch MPS 187244
2006 11 14.28841 04 04 19.98 +20 45 10.4   691 – Steward Observatory, Kitt Peak-Spacewatch MPS 187244
2006 11 14.30579 04 04 19.00 +20 45 08.9   691 – Steward Observatory, Kitt Peak-Spacewatch MPS 187244
2006 11 18.15930 04 00 46.84 +20 38 51.9 20.6 V 691 – Steward Observatory, Kitt Peak-Spacewatch MPS 188871
2006 11 18.18008 04 00 45.65 +20 38 49.8 20.4 V 691 – Steward Observatory, Kitt Peak-Spacewatch MPS 188871
2006 11 18.19747 04 00 44.66 +20 38 48.4 20.4 V 691 – Steward Observatory, Kitt Peak-Spacewatch MPS 188871
2006 11 22.16135 03 57 01.72 +20 31 50.5 20.3 V 691 – Steward Observatory, Kitt Peak-Spacewatch MPS 188871
2006 11 22.17877 03 57 00.72 +20 31 48.8 20.3 V 691 – Steward Observatory, Kitt Peak-Spacewatch MPS 188871
2006 11 22.19617 03 56 59.71 +20 31 47.0 20.2 V 691 – Steward Observatory, Kitt Peak-Spacewatch MPS 188871
2006 11 24.29932 03 55 00.80 +20 27 56.3 19.8 V G96 – Mt. Lemmon Survey MPS 190665
2006 11 24.30601 03 55 00.40 +20 27 55.7 19.8 V G96 – Mt. Lemmon Survey MPS 190665
2006 11 24.31273 03 55 00.01 +20 27 54.9 19.7 V G96 – Mt. Lemmon Survey MPS 190665
2006 11 24.31946 03 54 59.65 +20 27 54.3 19.8 V G96 – Mt. Lemmon Survey MPS 190665
2006 12 16.07423 03 36 43.97 +19 49 11.5   691 – Steward Observatory, Kitt Peak-Spacewatch MPS 192405
2006 12 16.09518 03 36 43.14 +19 49 09.8   691 – Steward Observatory, Kitt Peak-Spacewatch MPS 192405
2006 12 16.11613 03 36 42.25 +19 49 08.3   691 – Steward Observatory, Kitt Peak-Spacewatch MPS 192405
2006 12 16.26185 03 36 36.18 +19 48 55.2 20.8 V G96 – Mt. Lemmon Survey MPS 192405
2006 12 16.26638 03 36 35.92 +19 48 55.0 21.2 V G96 – Mt. Lemmon Survey MPS 192405
2006 12 16.27087 03 36 35.82 +19 48 54.6 20.5 V G96 – Mt. Lemmon Survey MPS 192405
2006 12 16.27537 03 36 35.60 +19 48 54.3 20.4 V G96 – Mt. Lemmon Survey MPS 192405
2008 01 10.42218 10 18 20.34 +14 44 06.5 20.8 V G96 – Mt. Lemmon Survey MPS 233438
2008 01 10.42759 10 18 20.23 +14 44 08.2 21.1 V G96 – Mt. Lemmon Survey MPS 233438
2008 01 10.43314 10 18 20.12 +14 44 08.8 21.0 V G96 – Mt. Lemmon Survey MPS 233438
2008 01 10.43862 10 18 20.01 +14 44 09.9 21.1 V G96 – Mt. Lemmon Survey MPS 233438
2008 01 11.41009 10 17 59.85 +14 47 14.6 21.6 V G96 – Mt. Lemmon Survey MPS 233438
2008 01 11.41771 10 17 59.74 +14 47 16.1 22.2 V G96 – Mt. Lemmon Survey MPS 233438
2008 01 11.42534 10 17 59.49 +14 47 17.5 21.7 V G96 – Mt. Lemmon Survey MPS 233438
2008 01 11.43292 10 17 59.35 +14 47 19.5 21.6 V G96 – Mt. Lemmon Survey MPS 233438
2008 01 11.44781 10 17 58.98 +14 47 22.1 21.1 V 691 – Steward Observatory, Kitt Peak-Spacewatch MPS 233438
2008 01 11.46545 10 17 58.59 +14 47 25.7 20.8 V 691 – Steward Observatory, Kitt Peak-Spacewatch MPS 233438
2008 01 11.48309 10 17 58.17 +14 47 28.9 20.5 V 691 – Steward Observatory, Kitt Peak-Spacewatch MPS 233438
2008 02 10.18503 09 58 49.58 +16 56 01.4 20.5 V 691 – Steward Observatory, Kitt Peak-Spacewatch MPS 237628
2008 02 10.20268 09 58 48.70 +16 56 06.1 20.4 V 691 – Steward Observatory, Kitt Peak-Spacewatch MPS 237628
2008 02 10.22033 09 58 47.79 +16 56 11.3 20.2 V 691 – Steward Observatory, Kitt Peak-Spacewatch MPS 237628
2008 02 13.26983 09 56 11.61 +17 10 29.2 20.0 V G96 – Mt. Lemmon Survey MPS 237628
2008 02 13.27567 09 56 11.32 +17 10 32.0 19.8 V G96 – Mt. Lemmon Survey MPS 237628
2008 02 13.28155 09 56 11.00 +17 10 32.7 20.5 V G96 – Mt. Lemmon Survey MPS 237628
2008 02 13.28744 09 56 10.68 +17 10 34.1 20.6 V G96 – Mt. Lemmon Survey MPS 237628
2008 02 13.30061 09 56 09.96 +17 10 38.1 20.4 V G96 – Mt. Lemmon Survey MPS 237628
2008 02 13.30698 09 56 09.63 +17 10 39.9 19.7 V G96 – Mt. Lemmon Survey MPS 237628
2008 02 13.31339 09 56 09.31 +17 10 41.6 19.9 V G96 – Mt. Lemmon Survey MPS 237628
2008 02 13.31976 09 56 08.95 +17 10 43.0 20.2 V G96 – Mt. Lemmon Survey MPS 237628
2009 04 29.31354 15 30 50.12 -18 12 41.2 20.1 V 691 – Steward Observatory, Kitt Peak-Spacewatch MPS 286375
2009 04 29.33120 15 30 49.27 -18 12 39.4 20.2 V 691 – Steward Observatory, Kitt Peak-Spacewatch MPS 286375
2009 04 29.34887 15 30 48.38 -18 12 37.4 20.3 V 691 – Steward Observatory, Kitt Peak-Spacewatch MPS 286375
2009 05 17.31479 15 15 25.86 -17 32 45.8 20.3 V 691 – Steward Observatory, Kitt Peak-Spacewatch MPS 287328
2009 05 17.32998 15 15 25.03 -17 32 43.4 20.3 V 691 – Steward Observatory, Kitt Peak-Spacewatch MPS 287328
2009 05 17.34518 15 15 24.21 -17 32 41.5 20.2 V 691 – Steward Observatory, Kitt Peak-Spacewatch MPS 287328
2010 08 19.71057 22 49 19.38 -12 27 59.7 18.9 R D29 – Purple Mountain Observatory, XuYi Station MPS 346082
2010 08 19.72566 22 49 18.76 -12 28 03.9 20.2 R D29 – Purple Mountain Observatory, XuYi Station MPS 346082
2010 08 19.74349 22 49 17.90 -12 28 09.7 19.8 R D29 – Purple Mountain Observatory, XuYi Station MPS 346082
2010 08 19.76327 22 49 16.98 -12 28 15.5 19.5 R D29 – Purple Mountain Observatory, XuYi Station MPS 346082
2010 09 05.30280 22 36 07.09 -13 45 05.6 19.8 V G96 – Mt. Lemmon Survey MPS 347797
2010 09 05.31031 22 36 06.69 -13 45 07.4 20.1 V G96 – Mt. Lemmon Survey MPS 347797
2010 09 05.31772 22 36 06.33 -13 45 09.3 19.9 V G96 – Mt. Lemmon Survey MPS 347797
2010 09 05.32513 22 36 05.97 -13 45 11.1 20.2 V G96 – Mt. Lemmon Survey MPS 347797
2010 09 13.283060 22 29 56.035 -14 15 27.77 20.55 g F51 – Pan-STARRS 1, Haleakala MPS 365155
2010 09 13.294136 22 29 55.516 -14 15 30.05 20.50 g F51 – Pan-STARRS 1, Haleakala MPS 365155
2010 09 13.307276 22 29 54.919 -14 15 32.65 19.86 i F51 – Pan-STARRS 1, Haleakala MPS 365155
2010 09 14.295030 22 29 11.658 -14 18 48.58 20.27 i F51 – Pan-STARRS 1, Haleakala MPS 365155
2010 09 14.306425 22 29 11.149 -14 18 50.76 20.17 i F51 – Pan-STARRS 1, Haleakala MPS 365155
